Regional Weather Roundup
Issued by NWS

Home | Current Version | Previous Version | Text Only | Print | Product List | Glossary Off
Versions: 1 2 3 4 5 6 7 8 9 10 11 12 13 14 15 16 17 18 19 20 21 22 23 24 25 26 27 28 29 30 31 32 33 34 35 36 37 38 39 40 41 42 43 44 45 46 47 48 49 50

000
ASUS45 KTFX 241510
RWRMT
MONTANA REGIONAL WEATHER ROUNDUP
NATIONAL WEATHER SERVICE GREAT FALLS MT
900 AM MDT MON APR 24 2017

NOTE: "FAIR" INDICATES FEW OR NO CLOUDS BELOW 12000 FEET WITH NO
SIGNIFICANT WEATHER AND/OR OBSTRUCTIONS TO VISIBILITY.

MTZ001>007-043-241600-
WEST OF THE DIVIDE

CITY           SKY/WX    TMP DP  RH WIND       PRES   REMARKS
KALISPELL      CLOUDY    43  40  89 S5        29.67F
MISSOULA       PTSUNNY   44  40  85 CALM      29.70F
BUTTE          CLOUDY    37  32  82 CALM      29.70S
MULLAN PASS    SNOW      30  30 100 CALM      29.65S VSB 1/4
ANACONDA         N/A     39  36  87 SE5       29.69F
DEER LODGE       N/A     41  36  81 SE6       29.72S
EUREKA           N/A     43  37  81 SE8       29.67S
HAMILTON         N/A     41  36  81 S8        29.68F
LIBBY            N/A     43  39  87 CALM      29.67S
PLAINS           N/A     42  38  86 CALM      29.72F
$$

MTZ008-052>055-241600-
SOUTHWEST MONTANA

CITY           SKY/WX    TMP DP  RH WIND       PRES   REMARKS
BOZEMAN        CLOUDY    42  37  82 SE6       29.70S
DILLON         CLOUDY    40  32  73 W3        29.67F
W YELLOWSTONE  HVY SNOW  32  32 100 CALM      29.71S VSB 1/4
ENNIS          MOSUNNY   41  34  75 N3        29.73S
THREE FORKS      N/A     42  42 100 CALM      29.73R
TWIN BRIDGES     N/A     42  34  73 CALM      29.72S
$$

MTZ009-010-012-014-046-048-049-054-241600-
EAST SLOPES AND CENTRAL MONTANA

CITY           SKY/WX    TMP DP  RH WIND       PRES   REMARKS
CUT BANK       CLOUDY    43  33  68 NW9       29.63R
GREAT FALLS    CLOUDY    47  35  63 SW9       29.64S
MALMSTROM AFB  MOSUNNY   47  37  65 SW10      29.65S
HELENA         CLOUDY    48  32  53 W7        29.67S
AUGUSTA        PTSUNNY   46  28  49 W13       29.62F
BOWMANS CRNR     N/A     44  33  65 S14       29.62F
CHOTEAU          N/A     48  32  53 SW6       29.64S
FAIRFIELD        N/A     47  32  55 SW8       29.62S
POWER            N/A     45  36  70 SW6       29.63S
RAYNESFORD       N/A     44  38  81 E3        29.64S
ULM              N/A     46  36  67 CALM      29.64S
$$

MTZ011-013-016-021-045-047-050-051-241600-
NORTH CENTRAL MONTANA

CITY           SKY/WX    TMP DP  RH WIND       PRES   REMARKS
HAVRE          CLOUDY    37  37 100 S3        29.66S FOG
LEWISTOWN      CLOUDY    42  39  89 E5        29.65S
N BAR RANCH      N/A     45  37  76 W6        29.67S
CHINOOK          N/A     37  37 100 E7        29.67S
DENTON         PTSUNNY   43  40  89 S8        29.61F
FORT BENTON      N/A    N/A N/A N/A MISG      29.66R
GEYSER         PTSUNNY   43  37  79 SW8       29.64S
GRASS RANGE      N/A     46  38  75 W6        29.62S
JUDITH GAP     PTSUNNY   41  37  84 SW8       29.64F
STANFORD         N/A     44  35  72 N5        29.64S
WINIFRED         N/A     45  40  82 CALM      29.63S
$$

MTZ017>020-022>027-061-062-241600-
NORTHEAST MONTANA

CITY           SKY/WX    TMP DP  RH WIND       PRES   REMARKS
GLASGOW        CLOUDY    34  31  88 E6        29.70R WCI  29
JORDAN           N/A     39  37  92 CALM      29.67R
WOLF POINT     CLOUDY    33  31  92 E9        29.73R WCI  25
MALTA          CLOUDY    37  36  93 E7        29.69S
PLENTYWOOD       N/A     27  27 100 E15       29.74R VSB 1   WCI  15
POPLAR           N/A     30  28  93 E9        29.73F WCI  22
SCOBEY           N/A     30  23  75 E9        29.72S WCI  22
$$

MTZ028>42-056>058-241600-
SOUTHCENTRAL AND SOUTHEAST MONTANA

CITY           SKY/WX    TMP DP  RH WIND       PRES   REMARKS
BAKER          CLOUDY    36  34  92 SE3       29.64F FOG
BILLINGS       CLOUDY    49  38  65 SW7       29.66R
LIVINGSTON     LGT RAIN  42  38  85 NW10      29.67R
MILES CITY     CLOUDY    43  40  89 N5        29.65S
BIG TIMBER     CLOUDY    43  37  81 CALM      29.70R
EKALAKA          N/A     40  38  93 W7        29.65
LAUREL           N/A     46  38  74 S2        29.67S
ROUNDUP          N/A     42  38  86 S5        29.61S
$$

REGIONAL REPORTS...DAKOTAS

CITY           SKY/WX    TMP DP  RH WIND       PRES   REMARKS
WILLISTON      CLOUDY    32  28  85 NE10      29.73F WCI  24
MINOT          LGT SNOW  30  27  88 N10       29.72S FOG     WCI  21
DICKINSON      CLOUDY    29  28  96 N6        29.65R WCI  23
BEACH          CLOUDY    32  32 100 SE5       29.69S
TIOGA          PTSUNNY   27  27 100 E12       29.74S FOG     WCI  16
WATFORD CITY     N/A     30  30 100 E6        29.71S FOG     WCI  24
BISMARCK       CLOUDY    35  32  88 N10       29.67R WCI  27
GRAND FORKS    LGT RAIN  36  34  92 E16       29.67F WCI  26
FARGO          CLOUDY    44  34  67 E9        29.60F
BUFFALO SD       N/A     39  36  89 N9        29.57F
RAPID CITY     CLOUDY    42  40  92 N20G25    29.61S FOG
$$

REGIONAL REPORTS...WYOMING/IDAHO/WASHINGTON

CITY           SKY/WX    TMP DP  RH WIND       PRES   REMARKS
GILLETTE       CLOUDY    47  42  83 N7        29.66S
SHERIDAN       CLOUDY    49  37  63 W5        29.66F
BUFFALO WY     CLOUDY    47  35  63 SE6       29.68S
CODY           CLOUDY    45  36  70 N5        29.67F
YELLOWSTONE LA   N/A     31  31 100 CALM      29.72F
IDAHO FALLS    LGT RAIN  42  38  85 S8        29.72S FOG
SALMON         CLOUDY    39  36  87 CALM      29.69F
BOISE          LGT RAIN  46  42  86 N10       29.72R
SPOKANE        CLOUDY    42  37  82 SW14      29.69S
$$

REGIONAL REPORTS...ALBERTA

CITY           SKY/WX    TMP DP  RH WIND       PRES   REMARKS
EDMONTON       MIX PCPN  32  32 100 E2        29.72S
CALGARY        LGT SNOW  32  30  93 NE7       29.66S FOG     WCI  26
LETHBRIDGE     CLOUDY    39  37  93 NE7       29.65R FOG
MEDICINE HAT   LGT RAIN  41  37  87 NE6       29.65R
WATERTON GATE    N/A     36  32  87 NE8         N/A  WCI  29
CARDSTON         N/A     37  37 100 N1          N/A
MILK RIVER       N/A     43  41  93 N6          N/A
$$

REGIONAL REPORTS...SASKATCHEWAN

CITY           SKY/WX    TMP DP  RH WIND       PRES   REMARKS
SWIFT CURRENT  CLOUDY    28  28 100 E13G18    29.69S FOG     WCI  18
REGINA         FLURRIES  28  23  80 E21G29    29.81F WCI  15
SASKATOON      CLOUDY    30  27  86 SE18      29.85S WCI  18
VAL MARIE        N/A     34  32  93 SE5         N/A
ASSINIBOIA       N/A     34  34 100 E7          N/A  WCI  28
$$



USA.gov is the U.S. government's official web portal to all federal, state and local government web resources and services.